EW7351 Weather Reports


time (UTC)temp
F
wind
direction
speed
knots
gust
knots
rain 1hr
in
rain 24hr
in
rain mn
in
humidity
%
barometer
mb
20260504041822 69 217 2.6 6.1 0.00 0.00 0.00 49 1014.6
20260504041322 69 131 1.7 7.0 0.00 0.00 0.00 49 1014.7
20260504040823 69 211 2.6 7.0 0.00 0.00 0.00 49 1014.7
20260504040525 69 169 2.6 7.8 0.00 0.00 0.00 48 1014.7
20260504035733 69 210 2.6 7.8 0.00 0.00 0.00 48 1014.7
20260504035229 69 122 1.7 7.0 0.00 0.00 0.00 48 1014.7
20260504034730 69 181 2.6 7.0 0.00 0.00 0.00 48 1014.7
20260504034212 69 192 1.7 5.2 0.00 0.00 0.00 47 1014.7
20260504033716 69 133 0.9 4.3 0.00 0.00 0.00 47 1014.7
20260504033200 69 190 1.7 5.2 0.00 0.00 0.00 47 1014.7
20260504032701 69 158 1.7 5.2 0.00 0.00 0.00 46 1014.6
20260504032200 70 174 1.7 6.1 0.00 0.00 0.00 46 1014.6
20260504031702 70 235 1.7 6.1 0.00 0.00 0.00 46 1014.6
20260504031143 70 184 1.7 6.1 0.00 0.00 0.00 45 1014.5
20260504030631 70 226 1.7 5.2 0.00 0.00 0.00 45 1014.4
20260504030129 70 124 1.7 5.2 0.00 0.00 0.00 44 1014.4
20260504025840 71 210 1.7 5.2 0.00 0.00 0.00 45 1014.5
20260504025119 71 217 1.7 3.5 0.00 0.00 0.00 44 1014.4
20260504024611 71 159 1.7 5.2 0.00 0.00 0.00 44 1014.5
20260504024108 71 151 1.7 5.2 0.00 0.00 0.00 44 1014.5
20260504023605 71 191 1.7 5.2 0.00 0.00 0.00 43 1014.5
20260504023105 71 198 1.7 5.2 0.00 0.00 0.00 43 1014.5
20260504022815 71 251 1.7 6.1 0.00 0.00 0.00 43 1014.5
20260504022053 72 229 2.6 7.0 0.00 0.00 0.00 42 1014.5
20260504021554 72 134 3.5 7.0 0.00 0.00 0.00 41 1014.4
20260504021033 72 149 3.5 7.0 0.00 0.00 0.00 41 1014.4
20260504020512 73 210 3.5 8.7 0.00 0.00 0.00 41 1014.3
20260504020012 73 200 3.5 8.7 0.00 0.00 0.00 40 1014.3
20260504015735 73 186 3.5 7.8 0.00 0.00 0.00 40 1014.3
20260504015226 73 208 3.5 6.1 0.00 0.00 0.00 39 1014.3
20260504014447 73 123 3.5 7.8 0.00 0.00 0.00 38 1014.3
20260504014147 74 179 3.5 8.7 0.00 0.00 0.00 38 1014.3
20260504013618 74 240 3.5 8.7 0.00 0.00 0.00 38 1014.2
20260504012831 74 94 3.5 8.7 0.00 0.00 0.00 37 1014.1
20260504012331 74 207 4.3 8.7 0.00 0.00 0.00 37 1014.1
20260504011825 74 256 4.3 8.7 0.00 0.00 0.00 37 1014.1
20260504011446 75 163 3.5 8.7 0.00 0.00 0.00 36 1014.1
20260504011323 75 130 3.5 8.7 0.00 0.00 0.00 36 1014.1
20260504010211 75 163 3.5 7.8 0.00 0.00 0.00 35 1014.1
20260504005646 75 250 4.3 9.6 0.00 0.00 0.00 34 1014.0
20260504005123 76 141 4.3 9.6 0.00 0.00 0.00 34 1014.1
20260504004842 76 236 4.3 9.6 0.00 0.00 0.00 33 1014.1
20260504004120 76 219 5.2 9.6 0.00 0.00 0.00 32 1014.1
20260504003623 76 212 4.3 9.6 0.00 0.00 0.00 32 1014.1
20260504003120 77 229 4.3 8.7 0.00 0.00 0.00 31 1014.1
20260504002620 77 169 4.3 13.0 0.00 0.00 0.00 31 1014.1
20260504002057 78 225 6.1 13.0 0.00 0.00 0.00 31 1014.0
20260504001752 78 134 6.1 13.0 0.00 0.00 0.00 31 1014.1
20260504001005 78 210 5.2 13.0 0.00 0.00 0.00 31 1014.2
20260504000440 78 162 5.2 11.3 0.00 0.00 0.00 31 1014.2
20260503235935 79 205 5.2 11.3 0.00 0.00 0.00 31 1014.2
20260503235436 79 137 5.2 9.6 0.00 0.00 0.00 31 1014.2
20260503235146 79 214 5.2 13.0 0.00 0.00 0.00 30 1014.2
20260503234646 79 227 5.2 13.0 0.00 0.00 0.00 31 1014.3
20260503234357 79 229 5.2 14.8 0.00 0.00 0.00 31 1014.3
20260503233411 79 186 5.2 14.8 0.00 0.00 0.00 30 1014.4
20260503232909 79 180 4.3 11.3 0.00 0.00 0.00 31 1014.4
20260503232406 79 203 5.2 11.3 0.00 0.00 0.00 30 1014.4
20260503231842 80 238 6.1 13.0 0.00 0.00 0.00 31 1014.4
20260503231315 80 148 6.1 13.0 0.00 0.00 0.00 30 1014.4
20260503230746 80 236 6.1 11.3 0.00 0.00 0.00 30 1014.3
20260503230507 80 154 6.1 10.4 0.00 0.00 0.00 30 1014.5
20260503225716 81 210 5.2 10.4 0.00 0.00 0.00 31 1014.5
20260503225214 81 205 5.2 12.2 0.00 0.00 0.00 30 1014.5
20260503225133 81 207 4.3 12.2 0.00 0.00 0.00 28 1014.5
20260503224145 81 234 4.3 9.6 0.00 0.00 0.00 28 1014.5
20260503223635 82 149 4.3 8.7 0.00 0.00 0.00 29 1014.6
20260503223136 81 212 4.3 10.4 0.00 0.00 0.00 30 1014.7
20260503222621 81 164 4.3 10.4 0.00 0.00 0.00 27 1014.7
20260503222057 82 233 4.3 11.3 0.00 0.00 0.00 27 1014.9
20260503221747 82 247 4.3 11.3 0.00 0.00 0.00 27 1014.8
20260503221026 82 212 4.3 9.6 0.00 0.00 0.00 26 1014.9
20260503220524 82 259 5.2 10.4 0.00 0.00 0.00 27 1014.9
20260503215429 82 167 6.1 12.2 0.00 0.00 0.00 26 1015.0
20260503214928 82 240 6.1 12.2 0.00 0.00 0.00 28 1015.0
20260503214641 82 249 6.1 11.3 0.00 0.00 0.00 27 1015.1
20260503213919 82 161 5.2 10.4 0.00 0.00 0.00 30 1015.1
20260503213611 82 234 5.2 9.6 0.00 0.00 0.00 30 1015.2
20260503212849 82 212 5.2 13.0 0.00 0.00 0.00 27 1015.2
20260503212321 82 252 5.2 13.0 0.00 0.00 0.00 28 1015.3
20260503211820 82 212 4.3 9.6 0.00 0.00 0.00 28 1015.4
20260503211511 82 243 5.2 9.6 0.00 0.00 0.00 27 1015.5
20260503210748 82 238 5.2 8.7 0.00 0.00 0.00 27 1015.6
20260503210507 82 235 4.3 10.4 0.00 0.00 0.00 26 1015.8
20260503205743 82 253 5.2 9.6 0.00 0.00 0.00 29 1015.7
20260503205505 82 214 3.5 9.6 0.00 0.00 0.00 27 1015.8
20260503204716 82 200 3.5 11.3 0.00 0.00 0.00 26 1015.9
20260503204145 82 148 4.3 11.3 0.00 0.00 0.00 26 1016.1
20260503203645 82 214 5.2 10.4 0.00 0.00 0.00 29 1016.2
20260503203132 82 223 5.2 12.2 0.00 0.00 0.00 26 1016.3
20260503202635 83 240 4.3 12.2 0.00 0.00 0.00 27 1016.4
20260503202125 83 219 3.5 9.6 0.00 0.00 0.00 26 1016.4
20260503201556 82 253 4.3 8.7 0.00 0.00 0.00 28 1016.5
20260503201033 82 231 4.3 9.6 0.00 0.00 0.00 26 1016.6
20260503200504 82 229 4.3 9.6 0.00 0.00 0.00 28 1016.7
20260503200002 82 251 4.3 11.3 0.00 0.00 0.00 29 1016.8
20260503195501 82 178 3.5 7.8 0.00 0.00 0.00 28 1016.9
20260503194934 82 272 4.3 9.6 0.00 0.00 0.00 27 1017.0
20260503194406 82 238 4.3 9.6 0.00 0.00 0.00 29 1017.0
20260503193902 82 182 4.3 8.7 0.00 0.00 0.00 29 1017.1
20260503193400 82 226 4.3 8.7 0.00 0.00 0.00 30 1017.2
20260503192859 81 227 3.5 8.7 0.00 0.00 0.00 30 1017.3
20260503192330 82 238 3.5 10.4 0.00 0.00 0.00 31 1017.3
20260503191828 81 141 4.3 10.4 0.00 0.00 0.00 28 1017.3
20260503191304 82 170 3.5 8.7 0.00 0.00 0.00 32 1017.5
20260503190734 83 261 2.6 7.0 0.00 0.00 0.00 31 1017.5
20260503190454 82 238 4.3 10.4 0.00 0.00 0.00 32 1017.6
20260503185707 81 248 5.2 10.4 0.00 0.00 0.00 31 1017.6
20260503185138 81 159 3.5 9.6 0.00 0.00 0.00 32 1017.6
20260503184639 81 155 3.5 9.6 0.00 0.00 0.00 35 1017.7
20260503184109 81 139 3.5 9.6 0.00 0.00 0.00 32 1017.8
20260503183609 81 221 2.6 9.6 0.00 0.00 0.00 33 1017.8
20260503183259 81 269 4.3 10.4 0.00 0.00 0.00 33 1018.0
20260503182538 81 150 5.2 10.4 0.00 0.00 0.00 32 1018.2
20260503182012 81 249 3.5 8.7 0.00 0.00 0.00 34 1018.3
20260503181447 81 231 3.5 10.4 0.00 0.00 0.00 34 1018.5
20260503180918 80 257 3.5 10.4 0.00 0.00 0.00 32 1018.6
20260503180415 81 280 2.6 8.7 0.00 0.00 0.00 34 1018.7
20260503180111 80 250 3.5 12.2 0.00 0.00 0.00 37 1018.8
20260503175323 81 220 2.6 6.1 0.00 0.00 0.00 35 1018.9
20260503174801 80 119 3.5 9.6 0.00 0.00 0.00 34 1019.0
20260503174237 80 233 4.3 11.3 0.00 0.00 0.00 34 1019.0
20260503173735 80 239 4.3 11.3 0.00 0.00 0.00 36 1019.1
20260503173234 80 177 3.5 9.6 0.00 0.00 0.00 40 1019.3
20260503172954 79 181 3.5 9.6 0.00 0.00 0.00 36 1019.3
20260503172434 79 216 3.5 8.7 0.00 0.00 0.00 36 1019.4
20260503171642 79 193 3.5 8.7 0.00 0.00 0.00 37 1019.5
20260503171114 79 250 4.3 9.6 0.00 0.00 0.00 36 1019.5
20260503170617 79 231 3.5 9.6 0.00 0.00 0.00 37 1019.6
20260503150726 74 231 2.6 7.8 0.00 0.00 0.00 42 1020.0
20260503150204 73 304 2.6 7.0 0.00 0.00 0.00 44 1020.0
20260503131127 62 133 0.9 3.5 0.00 0.00 0.00 63 1019.7
20260503130627 61 222 0.9 2.6 0.00 0.00 0.00 64 1019.7
20260503110804 53 250 0.0 0.0 0.00 0.00 0.00 73 1018.9
20260503100156 56 251 0.0 0.0 0.00 0.00 0.00 66 1018.7
20260503090359 56 250 0.0 0.0 0.00 0.00 0.00 65 1018.6
20260503081155 59 251 0.0 0.9 0.00 0.00 0.00 59 1018.6
20260503080653 59 250 0.0 0.9 0.00 0.00 0.00 58 1018.6
20260503080350 60 250 0.0 0.9 0.00 0.00 0.00 58 1018.6
20260503072926 60 240 0.0 1.7 0.00 0.00 0.00 56 1018.8
20260503072618 60 235 0.0 1.7 0.00 0.00 0.00 56 1018.7
20260503071854 61 255 0.0 1.7 0.00 0.00 0.00 56 1018.8
20260503071330 61 219 0.0 0.9 0.00 0.00 0.00 55 1018.9
20260503070805 61 202 0.0 0.9 0.00 0.00 0.00 55 1018.9
20260503070235 61 221 0.0 0.9 0.00 0.00 0.00 55 1018.9
20260503054855 63 213 0.0 1.7 0.00 0.00 0.00 52 1018.7
20260503054325 62 241 0.0 1.7 0.00 0.00 0.00 52 1018.7
20260503053826 62 184 0.0 0.9 0.00 0.00 0.00 52 1018.8
20260503053257 63 124 0.0 0.9 0.00 0.00 0.00 52 1018.7
20260503052758 63 145 0.0 1.7 0.00 0.00 0.00 52 1018.7
20260503052230 63 205 0.0 1.7 0.00 0.00 0.00 52 1018.5
20260503051728 63 134 0.0 1.7 0.00 0.00 0.00 52 1018.5
20260503051223 63 219 0.0 1.7 0.00 0.00 0.00 52 1018.5
20260503050725 63 248 0.0 0.9 0.00 0.00 0.00 52 1018.5
20260503050159 63 178 0.0 0.9 0.00 0.00 0.00 52 1018.6
20260503045655 63 217 0.0 0.9 0.00 0.00 0.00 52 1018.6
20260503045154 63 255 0.0 0.9 0.00 0.00 0.00 51 1018.6
20260503044914 63 165 0.0 1.7 0.00 0.00 0.00 51 1018.6
20260503044127 63 164 0.9 1.7 0.00 0.00 0.00 51 1018.6
20260503043622 63 220 0.9 1.7 0.00 0.00 0.00 51 1018.6
20260503043347 63 215 0.0 1.7 0.00 0.00 0.00 52 1018.6
20260503042553 63 233 0.0 0.9 0.00 0.00 0.00 52 1018.5
20260503042024 63 230 0.0 0.9 0.00 0.00 0.00 52 1018.5